Location: Niedergestelen
(46.3129°N, 7.7822°E)
Time: 14:07:09
(UTC+00:00)

NOAA 6 - Pass Details

Date: 01 December 2020
Orbit: 773 x 786 km, 98.7° (Epoch: 26 January)

Event Time Altitude Azimuth Distance (km) Brightness Sun altitude
Rises 16:18:19 0° 161° (SSE) 3,254 7.3 -6.0°
Reaches altitude 10° 16:20:37 10° 160° (SSE) 2,328 6.6 -6.4°
Maximum altitude 16:25:45 82° 75° (ENE) 792 4.0 -7.2°
Drops below altitude 10° 16:30:55 10° 347° (NNW) 2,336 6.4 -8.0°
Sets 16:33:14 0° 347° (NNW) 3,266 7.2 -8.4°
